Location: Br�znic
(45.9167°N, 22.6500°E)
Time: 07:58:33
(UTC+00:00)

Cosmos 1844 Rocket - Pass Details

Date: 03 March 2021
Orbit: 826 x 843 km, 71.0° (Epoch: 10 April)

Event Time Altitude Azimuth Distance (km) Brightness Sun altitude
Rises 18:23:42 0° 329° (NNW) 3,374 6.5 -22.4°
Reaches altitude 10° 18:26:12 10° 323° (NW) 2,436 5.8 -22.8°
Maximum altitude 18:31:31 47° 252° (WSW) 1,088 3.6 -23.7°
Enters shadow 18:36:07 14° 182° (S) 2,177 4.7 -24.4°
